Flag for Brazil Weather past 2 weeks in Santarém, Para, Brazil

Now
73 °F

Clear.


Feels Like: 68 °F
Forecast: 74 / 90 °F
Wind: 2 mph from East

Location: Santarem-Aeroporto

Current Time: Aug 23, 2014 at 3:27:11 AM

Latest Report: Aug 23, 2014 at 3:00 AM


Visibility: 10 mi

Pressure: 29.83 "Hg

Humidity: 100%

Dew point: 73 °F

Location of SantarémLocation

Historic Weather in Santarém — Graph

°F

Santarém temperature yesterday

Maximum temperature yesterday: 88 °F (at 2:00 PM)
Minimum temperature yesterday: 72 °F (at 4:00 AM)
Average temperature yesterday: 80 °F

Past Weeks' High & Low Weather Summary

 TemperatureHumidityPressure
High91 °F (Aug 19, 12:00 PM)100% (Aug 8, 3:00 AM)30.01 "Hg (Aug 8, 3:00 AM)
Low37 °F (Aug 9, 7:00 AM)52% (Aug 19, 12:00 PM)29.80 "Hg (Aug 9, 4:00 PM)
Average81 °F82%29.89 "Hg
* Reported Aug 8 2:00 AM — Aug 23 2:00 AM, Santarém, Weather by CustomWeather, © 2014

Note: Actual official high and low records may vary slightly from our data, if they occured in-between our weather recording intervals... More about our weather records

Advertising

Santarém weather history for previous 24 hours

 ConditionsComfort  
Time TempWeatherWind HumidityBarometerVisibility
2:00 AM
Aug 23
73 °FClear.No wind100%29.83 "Hg10 mi
1:00 AM75 °FClear.No wind94%29.86 "Hg10 mi
12:00 AM75 °FClear.No wind94%29.89 "Hg10 mi
11:00 PM
Aug 22
75 °FClear.3 mph94%29.89 "Hg10 mi
10:00 PM75 °FPassing clouds.No wind94%29.89 "HgN/A
9:00 PM77 °FPassing clouds.No wind94%29.86 "HgN/A
8:00 PM81 °FPassing clouds.2 mph84%29.83 "HgN/A
7:00 PM82 °FPassing clouds.3 mph74%29.83 "HgN/A
6:00 PM88 °FPassing clouds.7 mph66%29.80 "HgN/A
5:00 PM88 °FPassing clouds.3 mph66%29.80 "HgN/A
4:00 PM88 °FPassing clouds.3 mph66%29.83 "HgN/A
3:00 PM88 °FPassing clouds.12 mph70%29.86 "HgN/A
2:00 PM88 °FScattered clouds.13 mph66%29.89 "HgN/A
1:00 PM86 °FScattered clouds.10 mph75%29.92 "HgN/A
12:00 PM86 °FBroken clouds.12 mph70%29.95 "HgN/A
11:00 AM82 °FPartly sunny.14 mph79%29.98 "HgN/A
10:00 AM82 °FPartly sunny.14 mph79%29.98 "HgN/A
9:00 AM82 °FBroken clouds.12 mph79%29.95 "HgN/A
8:00 AM79 °FBroken clouds.12 mph89%29.95 "HgN/A
7:00 AM77 °FBroken clouds.9 mph94%29.92 "HgN/A
6:00 AM75 °FThunderstorms. Partly cloudy.9 mph94%29.92 "HgN/A
5:00 AM73 °FPartly cloudy.No wind94%29.89 "HgN/A
4:00 AM72 °FPartly cloudy.No wind100%29.89 "HgN/A
3:00 AM73 °FThunderstorms. Partly cloudy.2 mph94%29.92 "HgN/A
Weather by CustomWeather, © 2014

See weather overviewHow to use our weather pages